owner,sensor,date,latitude,longitude,vertical_datum,sea_water_temperature,qcFlag
BP,ioos:station:wmo:42369:2,2022-05-16T15:39:00Z,29.2536,-90.6610,0.6,35.7,11133222
BP,ioos:station:wmo:42369:2,2022-05-16T15:59:00Z,29.2536,-90.6610,0.9,35.6,11133222
BP,ioos:station:wmo:42369:2,2022-05-16T17:19:00Z,29.2536,-90.6609,0.6,33.8,11111222
BP,ioos:station:wmo:42369:2,2022-05-16T17:39:00Z,29.2536,-90.6609,0.1,33.3,11111222
BP,ioos:station:wmo:42369:2,2022-05-16T18:19:00Z,29.2536,-90.6609,0.5,30.8,11111222
BP,ioos:station:wmo:42369:2,2022-05-16T18:39:00Z,29.2536,-90.6609,0.3,29.8,11111222
BP,ioos:station:wmo:42369:2,2022-05-16T18:59:00Z,29.2536,-90.6610,0.8,29.0,11111222
BP,ioos:station:wmo:42369:2,2022-05-16T19:39:00Z,29.2536,-90.6610,0.2,27.9,11111222
BP,ioos:station:wmo:42369:2,2022-05-16T20:59:00Z,29.2536,-90.6610,0.2,27.0,11111222
BP,ioos:station:wmo:42369:2,2022-05-16T21:19:00Z,29.2536,-90.6610,0.6,26.9,11111222
BP,ioos:station:wmo:42369:2,2022-05-16T21:59:00Z,29.2536,-90.6610,0.4,26.7,11111222
BP,ioos:station:wmo:42369:2,2022-05-16T22:59:00Z,29.2536,-90.6610,0.7,26.2,11111222
BP,ioos:station:wmo:42369:2,2022-05-16T23:19:00Z,29.2536,-90.6609,0.3,26.1,11111222
BP,ioos:station:wmo:42369:2,2022-05-16T23:39:00Z,29.2536,-90.6609,0.6,26.0,11111222
BP,ioos:station:wmo:42369:2,2022-05-16T23:59:00Z,29.2535,-90.6610,0.6,25.9,11111222
BP,ioos:station:wmo:42369:2,2022-05-17T00:19:00Z,29.2535,-90.6610,0.2,25.8,11111222
BP,ioos:station:wmo:42369:2,2022-05-17T00:59:00Z,29.2535,-90.6610,0.9,25.7,11111222
BP,ioos:station:wmo:42369:2,2022-05-17T01:19:00Z,29.2535,-90.6610,0.5,25.6,11111222
BP,ioos:station:wmo:42369:2,2022-05-17T01:39:00Z,29.2535,-90.6610,0.7,25.6,11111222
BP,ioos:station:wmo:42369:2,2022-05-17T01:59:00Z,29.2535,-90.6610,0.3,25.5,11111222
BP,ioos:station:wmo:42369:2,2022-05-17T02:39:00Z,29.2535,-90.6610,0.3,25.5,11111222
BP,ioos:station:wmo:42369:2,2022-05-17T03:19:00Z,29.2535,-90.6610,0.5,25.4,11111222
BP,ioos:station:wmo:42369:2,2022-05-17T03:39:00Z,29.2535,-90.6610,0.3,25.4,11111222
BP,ioos:station:wmo:42369:2,2022-05-17T03:59:00Z,29.2535,-90.6609,0.7,25.3,11111222
BP,ioos:station:wmo:42369:2,2022-05-17T04:19:00Z,29.2535,-90.6609,0.7,25.3,11111222
BP,ioos:station:wmo:42369:2,2022-05-17T04:39:00Z,29.2535,-90.6609,0.4,25.3,11111222
BP,ioos:station:wmo:42369:2,2022-05-17T04:59:00Z,29.2535,-90.6609,0.4,25.2,11111222
BP,ioos:station:wmo:42369:2,2022-05-17T05:39:00Z,29.2535,-90.6609,0.5,25.2,11111222
BP,ioos:station:wmo:42369:2,2022-05-17T05:59:00Z,29.2535,-90.6609,0.3,25.3,11111222
BP,ioos:station:wmo:42369:2,2022-05-17T06:19:00Z,29.2535,-90.6609,0.5,25.5,11111222
BP,ioos:station:wmo:42369:2,2022-05-17T07:39:00Z,29.2535,-90.6609,0.5,26.4,11111222
BP,ioos:station:wmo:42369:2,2022-05-17T07:59:00Z,29.2535,-90.6609,0.5,27.0,11111222
BP,ioos:station:wmo:42369:2,2022-05-17T08:19:00Z,29.2535,-90.6609,0.8,27.6,11111222
BP,ioos:station:wmo:42369:2,2022-05-17T08:59:00Z,29.2535,-90.6609,0.6,29.0,11111222
BP,ioos:station:wmo:42369:2,2022-05-17T09:19:00Z,29.2535,-90.6609,0.5,29.4,11111222
BP,ioos:station:wmo:42369:2,2022-05-17T09:39:00Z,29.2535,-90.6609,0.7,30.4,11111222
BP,ioos:station:wmo:42369:2,2022-05-17T09:59:00Z,29.2535,-90.6609,0.2,31.1,11111222
BP,ioos:station:wmo:42369:2,2022-05-17T10:19:00Z,29.2535,-90.6609,0.9,31.9,11111222
BP,ioos:station:wmo:42369:2,2022-05-17T10:39:00Z,29.2535,-90.6609,0.9,32.4,11111222
BP,ioos:station:wmo:42369:2,2022-05-17T10:59:00Z,29.2535,-90.6609,1.1,32.7,11111222
BP,ioos:station:wmo:42369:2,2022-05-17T11:19:00Z,29.2536,-90.6610,0.5,32.8,11111222
BP,ioos:station:wmo:42369:2,2022-05-17T11:39:00Z,29.2536,-90.6609,0.6,34.0,11111222
BP,ioos:station:wmo:42369:2,2022-05-17T12:39:00Z,29.2536,-90.6609,0.9,33.6,11111222
BP,ioos:station:wmo:42369:2,2022-05-17T13:19:00Z,29.2535,-90.6610,0.6,33.5,11111222
BP,ioos:station:wmo:42369:2,2022-05-17T13:39:00Z,29.2535,-90.6610,1.0,33.6,11111222
BP,ioos:station:wmo:42369:2,2022-05-17T13:59:00Z,29.2535,-90.6610,0.3,33.6,11111222
BP,ioos:station:wmo:42369:2,2022-05-17T14:39:00Z,29.2536,-90.6610,0.6,34.0,11111222
BP,ioos:station:wmo:42369:2,2022-05-17T22:19:00Z,29.2535,-90.6609,0.8,34.4,11111222
BP,ioos:station:wmo:42369:2,2022-05-17T22:39:00Z,29.2535,-90.6609,0.3,34.3,11111222
BP,ioos:station:wmo:42369:2,2022-05-18T16:39:00Z,29.2536,-90.6610,0.7,30.2,11111222
BP,ioos:station:wmo:42369:2,2022-05-18T16:59:00Z,29.2536,-90.6610,0.4,30.6,11111222
BP,ioos:station:wmo:42369:2,2022-05-18T17:19:00Z,29.2536,-90.6610,0.3,31.0,11111222
BP,ioos:station:wmo:42369:2,2022-05-18T17:39:00Z,29.2536,-90.6610,0.6,31.5,11111222
BP,ioos:station:wmo:42369:2,2022-05-18T18:19:00Z,29.2536,-90.6610,0.4,32.4,11111222
BP,ioos:station:wmo:42369:2,2022-05-18T18:39:00Z,29.2536,-90.6610,0.4,32.8,11111222
BP,ioos:station:wmo:42369:2,2022-05-18T18:59:00Z,29.2535,-90.6610,0.5,33.3,11111222
BP,ioos:station:wmo:42369:2,2022-05-18T20:19:00Z,29.2535,-90.6610,0.3,34.8,11111222
BP,ioos:station:wmo:42369:2,2022-05-18T20:39:00Z,29.2535,-90.6610,0.3,35.1,11133222
BP,ioos:station:wmo:42369:2,2022-05-18T20:59:00Z,29.2535,-90.6609,0.4,35.5,11133222
BP,ioos:station:wmo:42369:2,2022-05-18T21:19:00Z,29.2535,-90.6610,0.5,35.6,11133222
BP,ioos:station:wmo:42369:2,2022-05-18T21:39:00Z,29.2535,-90.6609,0.6,35.7,11133222
BP,ioos:station:wmo:42369:2,2022-05-18T21:59:00Z,29.2535,-90.6609,0.7,35.6,11133222
BP,ioos:station:wmo:42369:2,2022-05-18T22:19:00Z,29.2535,-90.6609,0.3,35.5,11133222
BP,ioos:station:wmo:42369:2,2022-05-18T22:39:00Z,29.2535,-90.6609,0.7,35.4,11133222
BP,ioos:station:wmo:42369:2,2022-05-18T22:59:00Z,29.2535,-90.6609,0.5,35.3,11133222
BP,ioos:station:wmo:42369:2,2022-05-18T23:19:00Z,29.2536,-90.6610,0.7,35.0,11111222
BP,ioos:station:wmo:42369:2,2022-05-18T23:39:00Z,29.2536,-90.6609,0.2,34.6,11111222
BP,ioos:station:wmo:42369:2,2022-05-19T00:19:00Z,29.2536,-90.6610,0.8,33.4,11111222
BP,ioos:station:wmo:42369:2,2022-05-19T00:59:00Z,29.2536,-90.6609,0.4,32.0,11111222
BP,ioos:station:wmo:42369:2,2022-05-19T01:19:00Z,29.2535,-90.6609,0.6,31.4,11111222
BP,ioos:station:wmo:42369:2,2022-05-19T01:59:00Z,29.2535,-90.6609,0.5,30.4,11111222
BP,ioos:station:wmo:42369:2,2022-05-19T02:59:00Z,29.2535,-90.6610,0.5,29.4,11111222
BP,ioos:station:wmo:42369:2,2022-05-19T03:19:00Z,29.2535,-90.6610,0.7,29.1,11111222
BP,ioos:station:wmo:42369:2,2022-05-19T03:39:00Z,29.2535,-90.6610,0.5,28.9,11111222
BP,ioos:station:wmo:42369:2,2022-05-19T03:59:00Z,29.2535,-90.6610,0.6,28.7,11111222
BP,ioos:station:wmo:42369:2,2022-05-19T04:19:00Z,29.2535,-90.6610,0.5,28.5,11111222
BP,ioos:station:wmo:42369:2,2022-05-19T04:39:00Z,29.2535,-90.6610,0.7,28.3,11111222
BP,ioos:station:wmo:42369:2,2022-05-19T04:59:00Z,29.2535,-90.6610,0.3,28.1,11111222
BP,ioos:station:wmo:42369:2,2022-05-19T05:19:00Z,29.2535,-90.6610,0.8,27.9,11111222
BP,ioos:station:wmo:42369:2,2022-05-19T05:39:00Z,29.2535,-90.6610,0.5,27.8,11111222
BP,ioos:station:wmo:42369:2,2022-05-19T05:59:00Z,29.2535,-90.6610,0.6,27.7,11111222
BP,ioos:station:wmo:42369:2,2022-05-19T06:19:00Z,29.2535,-90.6610,0.5,27.5,11111222
BP,ioos:station:wmo:42369:2,2022-05-19T06:39:00Z,29.2536,-90.6610,0.4,27.4,11111222
BP,ioos:station:wmo:42369:2,2022-05-19T06:59:00Z,29.2535,-90.6610,0.5,27.4,11111222
BP,ioos:station:wmo:42369:2,2022-05-19T07:19:00Z,29.2535,-90.6610,0.6,27.3,11111222
BP,ioos:station:wmo:42369:2,2022-05-19T07:39:00Z,29.2535,-90.6609,0.3,27.1,11111222
BP,ioos:station:wmo:42369:2,2022-05-19T07:59:00Z,29.2536,-90.6609,0.3,27.0,11111222
BP,ioos:station:wmo:42369:2,2022-05-19T08:19:00Z,29.2535,-90.6609,0.9,26.9,11111222
BP,ioos:station:wmo:42369:2,2022-05-19T08:39:00Z,29.2536,-90.6609,0.4,26.8,11111222
BP,ioos:station:wmo:42369:2,2022-05-19T08:59:00Z,29.2535,-90.6610,0.4,26.7,11111222
BP,ioos:station:wmo:42369:2,2022-05-19T09:19:00Z,29.2536,-90.6610,0.7,26.6,11111222
BP,ioos:station:wmo:42369:2,2022-05-19T09:39:00Z,29.2535,-90.6610,0.5,26.5,11111222
BP,ioos:station:wmo:42369:2,2022-05-19T09:59:00Z,29.2535,-90.6610,0.8,26.4,11111222
BP,ioos:station:wmo:42369:2,2022-05-19T10:19:00Z,29.2536,-90.6610,0.5,26.4,11111222
BP,ioos:station:wmo:42369:2,2022-05-19T10:39:00Z,29.2536,-90.6610,0.7,26.3,11111222
BP,ioos:station:wmo:42369:2,2022-05-19T10:59:00Z,29.2536,-90.6610,0.7,26.2,11111222
BP,ioos:station:wmo:42369:2,2022-05-19T11:19:00Z,29.2536,-90.6609,0.6,26.2,11111222
BP,ioos:station:wmo:42369:2,2022-05-19T11:39:00Z,29.2536,-90.6609,1.0,26.1,11111222
BP,ioos:station:wmo:42369:2,2022-05-19T11:59:00Z,29.2536,-90.6609,0.6,26.1,11111222
BP,ioos:station:wmo:42369:2,2022-05-19T12:19:00Z,29.2536,-90.6610,0.8,26.2,11111222
BP,ioos:station:wmo:42369:2,2022-05-19T12:39:00Z,29.2536,-90.6610,0.7,26.2,11111222
BP,ioos:station:wmo:42369:2,2022-05-19T12:59:00Z,29.2536,-90.6610,0.4,26.3,11111222
BP,ioos:station:wmo:42369:2,2022-05-19T13:19:00Z,29.2535,-90.6610,0.6,26.5,11111222
BP,ioos:station:wmo:42369:2,2022-05-19T13:39:00Z,29.2535,-90.6610,0.8,26.8,11111222
BP,ioos:station:wmo:42369:2,2022-05-19T13:59:00Z,29.2535,-90.6610,0.6,27.1,11111222
BP,ioos:station:wmo:42369:2,2022-05-19T14:19:00Z,29.2536,-90.6610,0.2,27.4,11111222
BP,ioos:station:wmo:42369:2,2022-05-19T14:39:00Z,29.2535,-90.6610,0.3,27.7,11111222
BP,ioos:station:wmo:42369:2,2022-05-19T14:59:00Z,29.2535,-90.6610,0.5,28.2,11111222
BP,ioos:station:wmo:42369:2,2022-05-19T15:19:00Z,29.2536,-90.6610,0.6,28.6,11111222
BP,ioos:station:wmo:42369:2,2022-05-19T15:39:00Z,29.2536,-90.6610,1.0,29.1,11111222
BP,ioos:station:wmo:42369:2,2022-05-19T15:59:00Z,29.2536,-90.6610,0.5,29.5,11111222
BP,ioos:station:wmo:42369:2,2022-05-19T16:19:00Z,29.2536,-90.6610,0.3,30.1,11111222
BP,ioos:station:wmo:42369:2,2022-05-19T16:39:00Z,29.2536,-90.6610,0.5,30.6,11111222
BP,ioos:station:wmo:42369:2,2022-05-19T16:59:00Z,29.2536,-90.6610,0.5,31.2,11111222
BP,ioos:station:wmo:42369:2,2022-05-19T17:19:00Z,29.2536,-90.6610,0.8,31.7,11111222
BP,ioos:station:wmo:42369:2,2022-05-19T17:39:00Z,29.2536,-90.6610,0.7,32.2,11111222
BP,ioos:station:wmo:42369:2,2022-05-19T17:59:00Z,29.2535,-90.6610,0.8,32.7,11111222
BP,ioos:station:wmo:42369:2,2022-05-19T18:19:00Z,29.2536,-90.6610,0.7,33.1,11111222
BP,ioos:station:wmo:42369:2,2022-05-19T18:39:00Z,29.2536,-90.6609,0.5,33.5,11111222
BP,ioos:station:wmo:42369:2,2022-05-19T18:59:00Z,29.2535,-90.6610,0.8,33.9,11111222
BP,ioos:station:wmo:42369:2,2022-05-19T19:19:00Z,29.2535,-90.6610,0.6,34.4,11111222
BP,ioos:station:wmo:42369:2,2022-05-19T19:39:00Z,29.2535,-90.6610,0.4,34.5,11111222
BP,ioos:station:wmo:42369:2,2022-05-19T19:59:00Z,29.2535,-90.6610,0.5,34.5,11111222
BP,ioos:station:wmo:42369:2,2022-05-19T20:19:00Z,29.2536,-90.6610,0.3,34.6,11111222
BP,ioos:station:wmo:42369:2,2022-05-19T20:39:00Z,29.2536,-90.6610,0.3,34.9,11111222
BP,ioos:station:wmo:42369:2,2022-05-19T20:59:00Z,29.2535,-90.6609,0.3,35.1,11133222
BP,ioos:station:wmo:42369:2,2022-05-19T21:19:00Z,29.2535,-90.6609,0.9,35.2,11133222
BP,ioos:station:wmo:42369:2,2022-05-19T21:59:00Z,29.2536,-90.6609,0.2,35.3,11133222
BP,ioos:station:wmo:42369:2,2022-05-19T22:19:00Z,29.2535,-90.6609,0.3,35.0,11133222
BP,ioos:station:wmo:42369:2,2022-05-19T22:39:00Z,29.2535,-90.6609,0.2,34.7,11111222
BP,ioos:station:wmo:42369:2,2022-05-19T22:59:00Z,29.2536,-90.6610,0.4,34.5,11111222
BP,ioos:station:wmo:42369:2,2022-05-19T23:19:00Z,29.2535,-90.6610,0.3,34.2,11111222
BP,ioos:station:wmo:42369:2,2022-05-19T23:39:00Z,29.2536,-90.6610,0.3,33.8,11111222
BP,ioos:station:wmo:42369:2,2022-05-19T23:59:00Z,29.2536,-90.6610,0.6,33.1,11111222
BP,ioos:station:wmo:42369:2,2022-05-20T00:19:00Z,29.2536,-90.6610,0.4,32.4,11111222
BP,ioos:station:wmo:42369:2,2022-05-20T00:39:00Z,29.2536,-90.6610,0.8,31.7,11111222
BP,ioos:station:wmo:42369:2,2022-05-20T01:19:00Z,29.2535,-90.6610,0.8,30.5,11111222
BP,ioos:station:wmo:42369:2,2022-05-20T01:59:00Z,29.2535,-90.6609,0.5,29.7,11111222
BP,ioos:station:wmo:42369:2,2022-05-20T02:19:00Z,29.2535,-90.6610,0.8,29.3,11111222
BP,ioos:station:wmo:42369:2,2022-05-20T02:39:00Z,29.2535,-90.6610,0.2,29.0,11111222
BP,ioos:station:wmo:42369:2,2022-05-20T02:59:00Z,29.2535,-90.6610,0.3,28.7,11111222
BP,ioos:station:wmo:42369:2,2022-05-20T03:19:00Z,29.2535,-90.6610,0.4,28.5,11111222
BP,ioos:station:wmo:42369:2,2022-05-20T04:39:00Z,29.2536,-90.6610,0.6,27.9,11111222
BP,ioos:station:wmo:42369:2,2022-05-20T04:59:00Z,29.2536,-90.6610,0.7,27.8,11111222
BP,ioos:station:wmo:42369:2,2022-05-20T05:59:00Z,29.2535,-90.6609,0.7,27.5,11111222
BP,ioos:station:wmo:42369:2,2022-05-20T06:39:00Z,29.2536,-90.6609,0.4,27.4,11111222
BP,ioos:station:wmo:42369:2,2022-05-20T07:59:00Z,29.2535,-90.6610,0.3,27.1,11111222
BP,ioos:station:wmo:42369:2,2022-05-20T08:59:00Z,29.2536,-90.6610,0.7,26.9,11111222
BP,ioos:station:wmo:42369:2,2022-05-20T09:19:00Z,29.2536,-90.6610,0.6,26.8,11111222
BP,ioos:station:wmo:42369:2,2022-05-20T09:39:00Z,29.2536,-90.6610,0.6,26.7,11111222
BP,ioos:station:wmo:42369:2,2022-05-20T09:59:00Z,29.2536,-90.6610,0.5,26.6,11111222
BP,ioos:station:wmo:42369:2,2022-05-20T10:19:00Z,29.2535,-90.6610,0.6,26.5,11111222
BP,ioos:station:wmo:42369:2,2022-05-20T10:39:00Z,29.2535,-90.6610,0.3,26.5,11111222
BP,ioos:station:wmo:42369:2,2022-05-20T11:59:00Z,29.2535,-90.6610,0.3,26.5,11111222
BP,ioos:station:wmo:42369:2,2022-05-20T12:19:00Z,29.2536,-90.6610,0.6,26.6,11111222
BP,ioos:station:wmo:42369:2,2022-05-20T12:39:00Z,29.2536,-90.6610,0.5,26.7,11111222
BP,ioos:station:wmo:42369:2,2022-05-20T12:59:00Z,29.2535,-90.6610,0.6,26.8,11111222
BP,ioos:station:wmo:42369:2,2022-05-20T13:39:00Z,29.2536,-90.6610,0.6,27.1,11111222
BP,ioos:station:wmo:42369:2,2022-05-20T14:19:00Z,29.2536,-90.6610,0.1,27.7,11111222
BP,ioos:station:wmo:42369:2,2022-05-20T14:39:00Z,29.2536,-90.6610,0.4,28.1,11111222
BP,ioos:station:wmo:42369:2,2022-05-20T15:19:00Z,29.2536,-90.6610,0.4,29.0,11111222
BP,ioos:station:wmo:42369:2,2022-05-20T15:39:00Z,29.2536,-90.6610,0.3,29.5,11111222
BP,ioos:station:wmo:42369:2,2022-05-20T15:59:00Z,29.2536,-90.6610,0.4,30.0,11111222
BP,ioos:station:wmo:42369:2,2022-05-20T17:19:00Z,29.2536,-90.6610,0.6,31.6,11111222
BP,ioos:station:wmo:42369:2,2022-05-20T17:59:00Z,29.2535,-90.6610,0.6,32.3,11111222
BP,ioos:station:wmo:42369:2,2022-05-20T19:19:00Z,29.2535,-90.6610,0.6,33.8,11111222
BP,ioos:station:wmo:42369:2,2022-05-20T19:39:00Z,29.2535,-90.6610,0.4,34.1,11111222
BP,ioos:station:wmo:42369:2,2022-05-20T19:59:00Z,29.2535,-90.6610,0.5,34.4,11111222
BP,ioos:station:wmo:42369:2,2022-05-20T20:19:00Z,29.2536,-90.6610,0.3,34.5,11111222
BP,ioos:station:wmo:42369:2,2022-05-20T20:39:00Z,29.2536,-90.6610,0.4,34.7,11111222
BP,ioos:station:wmo:42369:2,2022-05-20T20:59:00Z,29.2535,-90.6609,0.5,34.8,11111222
BP,ioos:station:wmo:42369:2,2022-05-20T21:39:00Z,29.2536,-90.6609,0.6,34.8,11111222
BP,ioos:station:wmo:42369:2,2022-05-20T22:59:00Z,29.2535,-90.6609,0.8,33.4,11111222
BP,ioos:station:wmo:42369:2,2022-05-20T23:19:00Z,29.2535,-90.6609,0.5,32.9,11111222
BP,ioos:station:wmo:42369:2,2022-05-20T23:39:00Z,29.2535,-90.6609,1.0,32.5,11111222
BP,ioos:station:wmo:42369:2,2022-05-20T23:59:00Z,29.2536,-90.6610,1.0,31.9,11111222
BP,ioos:station:wmo:42369:2,2022-05-21T00:59:00Z,29.2536,-90.6609,0.4,30.4,11111222
BP,ioos:station:wmo:42369:2,2022-05-21T01:19:00Z,29.2535,-90.6609,0.8,30.0,11111222
BP,ioos:station:wmo:42369:2,2022-05-21T01:39:00Z,29.2535,-90.6609,0.5,29.7,11111222
BP,ioos:station:wmo:42369:2,2022-05-21T01:59:00Z,29.2536,-90.6610,0.3,29.5,11111222
BP,ioos:station:wmo:42369:2,2022-05-21T02:19:00Z,29.2535,-90.6609,0.4,29.2,11111222
BP,ioos:station:wmo:42369:2,2022-05-21T02:39:00Z,29.2535,-90.6609,0.8,29.1,11111222
BP,ioos:station:wmo:42369:2,2022-05-21T02:59:00Z,29.2535,-90.6610,0.5,28.9,11111222
BP,ioos:station:wmo:42369:2,2022-05-21T03:59:00Z,29.2535,-90.6610,0.9,28.5,11111222
BP,ioos:station:wmo:42369:2,2022-05-21T04:19:00Z,29.2535,-90.6610,0.5,28.4,11111222
BP,ioos:station:wmo:42369:2,2022-05-21T04:59:00Z,29.2535,-90.6610,0.6,28.2,11111222
BP,ioos:station:wmo:42369:2,2022-05-21T05:19:00Z,29.2535,-90.6610,0.6,28.2,11111222
BP,ioos:station:wmo:42369:2,2022-05-21T05:39:00Z,29.2535,-90.6610,0.5,28.1,11111222
BP,ioos:station:wmo:42369:2,2022-05-21T05:59:00Z,29.2536,-90.6610,0.7,28.0,11111222
BP,ioos:station:wmo:42369:2,2022-05-21T06:19:00Z,29.2535,-90.6610,0.4,27.9,11111222
BP,ioos:station:wmo:42369:2,2022-05-21T06:39:00Z,29.2535,-90.6610,0.5,27.9,11111222
BP,ioos:station:wmo:42369:2,2022-05-21T06:59:00Z,29.2536,-90.6610,0.6,27.9,11111222
BP,ioos:station:wmo:42369:2,2022-05-21T07:19:00Z,29.2535,-90.6610,0.3,27.9,11111222
BP,ioos:station:wmo:42369:2,2022-05-21T07:39:00Z,29.2536,-90.6610,0.4,27.8,11111222
BP,ioos:station:wmo:42369:2,2022-05-21T08:19:00Z,29.2536,-90.6609,0.7,27.8,11111222
BP,ioos:station:wmo:42369:2,2022-05-21T08:39:00Z,29.2536,-90.6609,0.8,27.8,11111222
BP,ioos:station:wmo:42369:2,2022-05-21T08:59:00Z,29.2535,-90.6610,0.6,27.7,11111222
BP,ioos:station:wmo:42369:2,2022-05-21T09:39:00Z,29.2536,-90.6610,0.3,27.7,11111222
BP,ioos:station:wmo:42369:2,2022-05-21T09:59:00Z,29.2536,-90.6610,0.8,27.6,11111222
BP,ioos:station:wmo:42369:2,2022-05-21T10:19:00Z,29.2535,-90.6610,0.5,27.6,11111222
BP,ioos:station:wmo:42369:2,2022-05-21T10:39:00Z,29.2536,-90.6609,1.0,27.5,11111222
BP,ioos:station:wmo:42369:2,2022-05-21T10:59:00Z,29.2536,-90.6610,0.4,27.5,11111222
BP,ioos:station:wmo:42369:2,2022-05-21T11:19:00Z,29.2536,-90.6610,0.3,27.5,11111222
BP,ioos:station:wmo:42369:2,2022-05-21T11:39:00Z,29.2535,-90.6610,0.5,27.5,11111222
BP,ioos:station:wmo:42369:2,2022-05-21T11:59:00Z,29.2536,-90.6610,0.2,27.6,11111222
BP,ioos:station:wmo:42369:2,2022-05-21T12:19:00Z,29.2536,-90.6610,0.9,27.6,11111222
BP,ioos:station:wmo:42369:2,2022-05-21T12:39:00Z,29.2536,-90.6610,0.7,27.7,11111222
BP,ioos:station:wmo:42369:2,2022-05-21T13:39:00Z,29.2535,-90.6610,0.9,28.2,11111222
BP,ioos:station:wmo:42369:2,2022-05-21T13:59:00Z,29.2535,-90.6610,0.7,28.4,11111222
BP,ioos:station:wmo:42369:2,2022-05-21T14:19:00Z,29.2535,-90.6610,0.8,28.7,11111222
BP,ioos:station:wmo:42369:2,2022-05-21T14:39:00Z,29.2535,-90.6610,0.5,29.2,11111222
BP,ioos:station:wmo:42369:2,2022-05-21T14:59:00Z,29.2535,-90.6610,0.3,29.6,11111222
BP,ioos:station:wmo:42369:2,2022-05-21T15:19:00Z,29.2535,-90.6610,0.4,30.0,11111222
BP,ioos:station:wmo:42369:2,2022-05-21T15:39:00Z,29.2535,-90.6610,1.0,30.4,11111222
BP,ioos:station:wmo:42369:2,2022-05-21T16:19:00Z,29.2536,-90.6610,0.6,30.7,11111222
BP,ioos:station:wmo:42369:2,2022-05-21T16:39:00Z,29.2536,-90.6610,0.7,31.1,11111222
BP,ioos:station:wmo:42369:2,2022-05-21T16:59:00Z,29.2536,-90.6610,0.7,31.5,11111222
BP,ioos:station:wmo:42369:2,2022-05-21T17:19:00Z,29.2536,-90.6609,1.1,31.3,11111222
BP,ioos:station:wmo:42369:2,2022-05-21T17:59:00Z,29.2535,-90.6609,0.8,30.9,11111222
BP,ioos:station:wmo:42369:2,2022-05-21T18:19:00Z,29.2536,-90.6610,0.7,31.2,11111222
BP,ioos:station:wmo:42369:2,2022-05-21T18:59:00Z,29.2535,-90.6610,1.0,32.2,11111222
BP,ioos:station:wmo:42369:2,2022-05-21T19:19:00Z,29.2535,-90.6610,1.1,32.7,11111222
BP,ioos:station:wmo:42369:2,2022-05-21T19:39:00Z,29.2535,-90.6610,1.1,33.1,11111222
BP,ioos:station:wmo:42369:2,2022-05-21T19:59:00Z,29.2535,-90.6610,0.7,33.5,11111222
BP,ioos:station:wmo:42369:2,2022-05-21T20:19:00Z,29.2536,-90.6610,0.6,33.9,11111222
BP,ioos:station:wmo:42369:2,2022-05-21T20:39:00Z,29.2536,-90.6610,0.4,33.9,11111222
BP,ioos:station:wmo:42369:2,2022-05-21T20:59:00Z,29.2535,-90.6610,0.9,33.8,11111222
BP,ioos:station:wmo:42369:2,2022-05-21T21:19:00Z,29.2535,-90.6610,0.5,33.8,11111222
BP,ioos:station:wmo:42369:2,2022-05-21T21:39:00Z,29.2536,-90.6609,0.8,33.3,11111222
BP,ioos:station:wmo:42369:2,2022-05-21T21:59:00Z,29.2535,-90.6609,1.1,32.8,11111222
BP,ioos:station:wmo:42369:2,2022-05-21T22:19:00Z,29.2535,-90.6609,0.8,31.8,11111222
BP,ioos:station:wmo:42369:2,2022-05-21T23:19:00Z,29.2536,-90.6610,0.3,29.8,11111222
BP,ioos:station:wmo:42369:2,2022-05-21T23:39:00Z,29.2536,-90.6610,1.0,29.3,11111222
BP,ioos:station:wmo:42369:2,2022-05-21T23:59:00Z,29.2536,-90.6610,0.6,28.9,11111222
BP,ioos:station:wmo:42369:2,2022-05-22T00:39:00Z,29.2536,-90.6610,0.8,28.5,11111222
BP,ioos:station:wmo:42369:2,2022-05-22T00:59:00Z,29.2535,-90.6609,0.7,28.4,11111222
BP,ioos:station:wmo:42369:2,2022-05-22T01:19:00Z,29.2535,-90.6610,0.8,28.2,11111222
BP,ioos:station:wmo:42369:2,2022-05-22T01:39:00Z,29.2535,-90.6610,1.0,28.1,11111222
BP,ioos:station:wmo:42369:2,2022-05-22T02:19:00Z,29.2535,-90.6609,0.3,27.8,11111222
BP,ioos:station:wmo:42369:2,2022-05-22T02:39:00Z,29.2535,-90.6609,0.8,27.7,11111222
BP,ioos:station:wmo:42369:2,2022-05-22T03:19:00Z,29.2535,-90.6609,0.3,27.6,11111222
BP,ioos:station:wmo:42369:2,2022-05-22T03:39:00Z,29.2535,-90.6610,0.4,27.5,11111222
BP,ioos:station:wmo:42369:2,2022-05-22T03:59:00Z,29.2535,-90.6610,0.6,27.4,11111222
BP,ioos:station:wmo:42369:2,2022-05-22T04:39:00Z,29.2535,-90.6610,0.7,27.3,11111222
BP,ioos:station:wmo:42369:2,2022-05-22T04:59:00Z,29.2535,-90.6610,0.7,27.3,11111222
BP,ioos:station:wmo:42369:2,2022-05-22T05:19:00Z,29.2535,-90.6610,0.6,27.3,11111222
BP,ioos:station:wmo:42369:2,2022-05-22T05:39:00Z,29.2535,-90.6610,0.5,27.2,11111222
BP,ioos:station:wmo:42369:2,2022-05-22T05:59:00Z,29.2535,-90.6610,0.7,27.2,11111222
BP,ioos:station:wmo:42369:2,2022-05-22T06:19:00Z,29.2535,-90.6610,0.7,27.1,11111222
BP,ioos:station:wmo:42369:2,2022-05-22T06:39:00Z,29.2535,-90.6610,0.3,27.1,11111222
BP,ioos:station:wmo:42369:2,2022-05-22T06:59:00Z,29.2535,-90.6610,0.8,27.1,11111222
BP,ioos:station:wmo:42369:2,2022-05-22T07:19:00Z,29.2535,-90.6610,0.8,27.0,11111222
BP,ioos:station:wmo:42369:2,2022-05-22T07:39:00Z,29.2535,-90.6609,0.6,27.0,11111222
BP,ioos:station:wmo:42369:2,2022-05-22T07:59:00Z,29.2536,-90.6609,0.5,26.9,11111222
BP,ioos:station:wmo:42369:2,2022-05-22T08:39:00Z,29.2536,-90.6610,0.6,26.9,11111222
BP,ioos:station:wmo:42369:2,2022-05-22T08:59:00Z,29.2535,-90.6610,0.6,26.9,11111222
BP,ioos:station:wmo:42369:2,2022-05-22T09:39:00Z,29.2535,-90.6610,0.6,26.8,11111222
BP,ioos:station:wmo:42369:2,2022-05-22T09:59:00Z,29.2536,-90.6610,1.0,26.8,11111222
BP,ioos:station:wmo:42369:2,2022-05-22T10:19:00Z,29.2536,-90.6609,0.6,26.8,11111222
BP,ioos:station:wmo:42369:2,2022-05-22T10:59:00Z,29.2536,-90.6609,0.3,26.8,11111222
BP,ioos:station:wmo:42369:2,2022-05-22T11:19:00Z,29.2536,-90.6609,0.7,26.7,11111222
BP,ioos:station:wmo:42369:2,2022-05-22T11:39:00Z,29.2536,-90.6610,0.6,26.7,11111222
BP,ioos:station:wmo:42369:2,2022-05-22T11:59:00Z,29.2535,-90.6610,0.6,26.7,11111222
BP,ioos:station:wmo:42369:2,2022-05-22T12:19:00Z,29.2536,-90.6610,0.4,26.7,11111222
BP,ioos:station:wmo:42369:2,2022-05-22T12:39:00Z,29.2535,-90.6610,0.7,26.8,11111222
BP,ioos:station:wmo:42369:2,2022-05-22T12:59:00Z,29.2535,-90.6610,0.6,26.9,11111222
BP,ioos:station:wmo:42369:2,2022-05-22T13:19:00Z,29.2535,-90.6610,0.7,27.0,11111222
BP,ioos:station:wmo:42369:2,2022-05-22T13:39:00Z,29.2535,-90.6610,0.6,27.2,11111222
BP,ioos:station:wmo:42369:2,2022-05-22T13:59:00Z,29.2535,-90.6610,0.8,27.4,11111222
BP,ioos:station:wmo:42369:2,2022-05-22T14:19:00Z,29.2535,-90.6610,0.6,27.6,11111222
BP,ioos:station:wmo:42369:2,2022-05-22T14:39:00Z,29.2535,-90.6610,1.3,28.0,11111222
BP,ioos:station:wmo:42369:2,2022-05-22T14:59:00Z,29.2535,-90.6610,0.6,28.2,11111222
BP,ioos:station:wmo:42369:2,2022-05-22T15:19:00Z,29.2535,-90.6610,0.5,28.5,11111222
BP,ioos:station:wmo:42369:2,2022-05-22T15:39:00Z,29.2536,-90.6610,0.6,28.7,11111222
BP,ioos:station:wmo:42369:2,2022-05-22T15:59:00Z,29.2536,-90.6610,0.9,28.7,11111222
BP,ioos:station:wmo:42369:2,2022-05-22T16:19:00Z,29.2536,-90.6610,1.0,29.1,11111222
BP,ioos:station:wmo:42369:2,2022-05-22T16:39:00Z,29.2536,-90.6610,0.8,29.9,11111222
BP,ioos:station:wmo:42369:2,2022-05-22T16:59:00Z,29.2536,-90.6610,0.5,30.4,11111222
BP,ioos:station:wmo:42369:2,2022-05-22T17:19:00Z,29.2536,-90.6609,0.7,31.0,11111222
BP,ioos:station:wmo:42369:2,2022-05-22T17:39:00Z,29.2536,-90.6609,0.9,31.5,11111222
BP,ioos:station:wmo:42369:2,2022-05-22T17:59:00Z,29.2535,-90.6610,1.1,31.9,11111222